CWCA

Cartwright Airport

Cartwright, Canada
Issued Wind Visibility Ceiling Temperature Dew Point Humidity Barometer
Aug-19
08:00 UTC
180°
3 KTS
15 miles Overcast
1,000' AGL
C
41° F
C
41° F
100% 30.05" Hg
1017.8 hPa
MVFR
Aug-19
07:51 UTC
180°
3 KTS
15 miles Overcast
1,000' AGL
C
41° F
C
41° F
100% 30.05" Hg
1017.8 hPa
MVFR
Aug-19
07:00 UTC
180°
4 KTS
1 1/2 miles Vertical visibility
400' AGL
C
43° F
C
41° F
93% 30.05" Hg
1017.8 hPa
LIFR
Aug-19
06:00 UTC
200°
6 KTS
15 miles   C
41° F
C
41° F
100% 30.06" Hg
1018.1 hPa
VFR
Aug-19
05:00 UTC
160°
5 KTS
15 miles Broken
2,000' AGL
C
43° F
C
43° F
100% 30.06" Hg
1018 hPa
MVFR
Aug-19
04:00 UTC
Varies @2 KTS 15 miles Overcast
2,000' AGL
C
43° F
C
41° F
93% 30.07" Hg
1018.3 hPa
MVFR
Aug-19
03:00 UTC
190°
3 KTS
15 miles Overcast
2,000' AGL
C
43° F
C
41° F
93% 30.07" Hg
1018.5 hPa
MVFR
Aug-19
02:00 UTC
130°
3 KTS
15 miles Broken
30,000' AGL
C
41° F
C
41° F
100% 30.07" Hg
1018.4 hPa
VFR
Aug-19
01:00 UTC
120°
3 KTS
15 miles Broken
30,000' AGL
C
41° F
C
41° F
100% 30.07" Hg
1018.5 hPa
VFR
Aug-19
00:00 UTC
110°
4 KTS
15 miles Broken
30,000' AGL
C
43° F
C
41° F
93% 30.06" Hg
1018.2 hPa
VFR
Aug-18
23:00 UTC
100°
5 KTS
15 miles Broken
20,000' AGL
C
45° F
C
43° F
93% 30.05" Hg
1017.8 hPa
VFR
Aug-18
22:00 UTC
Varies @2 KTS 15 miles Broken
7,000' AGL
C
46° F
C
43° F
87% 30.05" Hg
1017.8 hPa
VFR
Aug-18
21:00 UTC
Varies @2 KTS 15 miles Broken
1,600' AGL
C
48° F
C
43° F
82% 30.05" Hg
1017.6 hPa
MVFR
Aug-18
20:00 UTC
360°
5 KTS
15 miles Overcast
1,600' AGL
C
48° F
C
45° F
87% 30.04" Hg
1017.5 hPa
MVFR
Aug-18
19:00 UTC
350°
6 KTS
15 miles Broken
700' AGL
C
48° F
C
45° F
87% 30.05" Hg
1017.6 hPa
IFR
Aug-18
18:00 UTC
360°
6 KTS
12 miles Broken
700' AGL
C
46° F
C
45° F
93% 30.04" Hg
1017.5 hPa
IFR
Aug-18
17:00 UTC
360°
8 KTS
15 miles Broken
700' AGL
C
46° F
C
43° F
87% 30.04" Hg
1017.3 hPa
IFR
Aug-18
16:00 UTC
350°
6 KTS
12 miles Broken
700' AGL
C
48° F
C
45° F
87% 30.02" Hg
1016.9 hPa
IFR
Aug-18
15:00 UTC
360°
9 KTS
7 miles Broken
700' AGL
C
46° F
C
45° F
93% 30.03" Hg
1017.1 hPa
IFR
Aug-18
14:00 UTC
350°
7 KTS
7 miles Broken
700' AGL
C
46° F
C
45° F
93% 30.03" Hg
1017.1 hPa
IFR
Aug-18
13:39 UTC
350°
9 KTS
7 miles Broken
700' AGL
C
45° F
C
45° F
100% 30.03" Hg
1017.1 hPa
IFR
Aug-18
13:00 UTC
350°
9 KTS
6 miles Broken
700' AGL
C
45° F
C
45° F
100% 30.03" Hg
1017 hPa
IFR
Aug-18
12:41 UTC
350°
11 KTS
7 miles Broken
700' AGL
C
45° F
C
43° F
93% 30.02" Hg
1016.8 hPa
IFR
Aug-18
12:00 UTC
350°
11 KTS
10 miles Overcast
1,800' AGL
C
45° F
C
43° F
93% 30.02" Hg
1016.6 hPa
MVFR
Aug-18
11:00 UTC
350°
9 KTS
Gust 15 KTS
10 miles Overcast
1,800' AGL
C
45° F
C
43° F
93% 30.01" Hg
1016.4 hPa
MVFR
Aug-18
10:00 UTC
350°
10 KTS
10 miles Overcast
1,800' AGL
C
45° F
C
43° F
93% 29.99" Hg
1015.9 hPa
MVFR